This is the latest recevied weather packets stored in our database for station/object WB0OCV. If no packets are shown the sender has not sent any weather packets the latest 10 day(s).
| Time | Temp. | Humidity | Pressure | Rain* | Wind** | Luminosity | Snow |
|---|---|---|---|---|---|---|---|
| 1777555599 | 10° C | 95% | 1009.8 hPa | 0 mm | - | 95 W/m² | - |
| 1777555296 | 10° C | 95% | 1009.8 hPa | 0 mm | - | 115 W/m² | - |
| 1777554992 | 10° C | 95% | 1009.9 hPa | 0 mm | - | 131 W/m² | - |
| 1777554690 | 10° C | 95% | 1010.1 hPa | 0 mm | - | 87 W/m² | - |
| 1777554386 | 10° C | 95% | 1009.8 hPa | 0 mm | - | 116 W/m² | - |
| 1777554083 | 10° C | 95% | 1010 hPa | 0 mm | - | 137 W/m² | - |
| 1777553780 | 10° C | 96% | 1010 hPa | 0 mm | - | 112 W/m² | - |
| 1777553477 | 10° C | 96% | 1010 hPa | 0 mm | - | 172 W/m² | - |
| 1777553172 | 10° C | 97% | 1010 hPa | 0 mm | - | 181 W/m² | - |
| 1777552868 | 9.44° C | 98% | 1009.8 hPa | 0 mm | - | 183 W/m² | - |
| 1777552563 | 10° C | 99% | 1010 hPa | 0 mm | - | 184 W/m² | - |
| 1777552260 | 9.44° C | 99% | 1010 hPa | 0 mm | - | 167 W/m² | - |
| 1777551956 | 9.44° C | 99% | 1009.9 hPa | 0 mm | - | 181 W/m² | - |
| 1777551654 | 9.44° C | 99% | 1010.1 hPa | 0 mm | - | 195 W/m² | - |
| 1777551352 | 8.89° C | 99% | 1009.9 hPa | 0 mm | - | 149 W/m² | - |
| 1777551048 | 8.89° C | 99% | 1009.8 hPa | 0 mm | - | 138 W/m² | - |
| 1777550745 | 8.89° C | 99% | 1009.9 hPa | 0 mm | - | 109 W/m² | - |
| 1777550441 | 8.89° C | 99% | 1009.8 hPa | 0 mm | - | 115 W/m² | - |
| 1777550137 | 8.89° C | 99% | 1009.8 hPa | 0 mm | - | 111 W/m² | - |
| 1777549834 | 8.33° C | 99% | 1009.9 hPa | 0 mm | - | 90 W/m² | - |
| 1777549530 | 8.89° C | 99% | 1009.8 hPa | 0 mm | - | 90 W/m² | - |
| 1777549226 | 8.33° C | 99% | 1009.9 hPa | 0 mm | - | 39 W/m² | - |
| 1777548923 | 8.33° C | 99% | 1009.6 hPa | 0 mm | - | 45 W/m² | - |
| 1777548620 | 8.33° C | 99% | 1009.7 hPa | 0 mm | - | 36 W/m² | - |
| 1777548316 | 8.33° C | 99% | 1009.6 hPa | 0 mm | - | 33 W/m² | - |
* Rain latest hour (hover to see other rain measurements)
** Current wind speed in m/s (hover to see current wind gust speed)